Powrót do katalogu

CZ-6A DEB

AktywnySSO
NORAD 56607·DEBRIS·🇨🇳 China

Wystrzelony Nov 11, 2022 z Taiyuan Satellite Launch Center

Loading…

Następne Przeloty (najbliższe 24 godziny)

TLE

ŚwieżeSource: Space-Track

Epoka: Sep 13, 2026, 18:48 UTC

1 56607U 22151AEF 26256.78383143  .00000344  00000-0  13945-3 0  9999
2 56607  98.6864 282.6677 0115059 194.7319 165.0501 14.30392596176778

Śledź CZ-6A DEB w czasie rzeczywistym z AllMySat

Download on the App Store